Find Starlink 30141

NORAD ID: 57620 Int'l Des: 2023-119 Owner: SPXS Country: US Constellation: starlink operational
LEOCIRCULAR

当前视图

正在加载3D地球...

About Starlink 30141

Starlink 30141 (NORAD 57620) is a starlink constellation satellite (v2 mini) launched Aug 11, 2023 by SPXS of US. It operates in LEO, CIRCULAR orbit with a mass of 730.00 kg.

即将过境

Passes for default location (London). Set your location on the main map for personalized predictions.

高度历史

Loading altitude history...

两行轨道根数

1 57620U 23119U 26221.66775139 .00002514 00000-0 10084-3 0 9991
2 57620 43.0057 297.5395 0002335 270.2039 89.8545 15.27588290166488
Epoch: Aug 9, 2026 • Age: 16 hours

当前状态

高度 485.6 km
远地点 / 近地点 N/A
速度 7.63 km/s
星下点 34.20°N, 97.98°W
发射日期 Aug 11, 2023
运行时间 2.9 years
类型 internet

技术详情

分类 Payload
质量 730.00 kg
干质量 700.00 kg
总质量 730.00 kg
长度 0.30 m
直径 4.10 m
跨度 29.00 m
形状 Box + pan
制造商 SPXS
平台类型 Starlink V2M
阶段状态 In Orbit
所有者/国家 SPXS/US

Most Searched